Regional Weather Roundup
Issued by NWS

Home | Current Version | Previous Version | Text Only | Print | Product List | Glossary On
Versions: 1 2 3 4 5 6 7 8 9 10 11 12 13 14 15 16 17 18 19 20 21 22 23 24 25 26 27 28 29 30 31 32 33 34 35 36 37 38 39 40 41 42 43 44 45 46 47 48 49 50
000
ASUS43 KLSX 282259
RWRMO

WEATHER SUMMARY FOR MISSOURI
NATIONAL WEATHER SERVICE SPRINGFIELD MO
500 PM CST WED JAN 28 2015

NOTE: "FAIR" INDICATES FEW OR NO CLOUDS BELOW 12,000 FEET WITH NO
       SIGNIFICANT WEATHER AND/OR OBSTRUCTIONS TO VISIBILITY.
       CURRENT SKY AND/OR WEATHER CONDITIONS ARE NOT AVAILABLE FOR
       CHILLICOTHE AND FARMINGTON.

MOZ001>031-035>038-043-044-053-054-290000-
...NORTHERN AND WESTERN MISSOURI...

CITY           SKY/WX    TMP DP  RH WIND       PRES   REMARKS
KANSAS CTY INT CLOUDY    70  39  32 S23       29.68R
KANSAS C DTWN  CLOUDY    73  37  27 S20G30    29.69R
LEE`S SUMMIT   MOCLDY    70  38  31 S16G23    29.71S
ST JOSEPH      MOCLDY    69  38  32 SW10      29.66S
CHILLICOTHE      N/A     65  41  41 S10G20    29.71F
KIRKSVILLE     MOCLDY    50  39  66 SE16      29.74F

$$
MOZ066>068-077>081-088>096-101>105-290000-
...SOUTHWEST MISSOURI...

CITY           SKY/WX    TMP DP  RH WIND       PRES   REMARKS
SPRINGFIELD    MOCLDY    67  37  33 S13       29.88R
JOPLIN         MOCLDY    69  38  32 S22       29.83F

$$
MOZ032>034-039>042-045>050-055>058-069>072-290000-
...CENTRAL MISSOURI...

CITY           SKY/WX    TMP DP  RH WIND       PRES   REMARKS
COLUMBIA       MOCLDY    57  36  45 S15G25    29.84F
JEFFERSON CITY PTCLDY    59  34  39 SE14      29.86F
ROLLA          PTCLDY    52  34  50 S17       29.89F
SEDALIA        MOCLDY    64  39  39 S22G29    29.77F
OSAGE BEACH    PTCLDY    57  34  41 S15       29.88S

$$
MOZ051-052-059>065-290000-
...EAST CENTRAL MISSOURI...

CITY           SKY/WX    TMP DP  RH WIND       PRES   REMARKS
ST LOUIS INTL  MOCLDY    49  31  49 SE20G26   29.97F
SPIRIT OF STL  MOCLDY    52  31  44 S12G20    29.93F
ST CHARLES     MOCLDY    45  33  63 SE17      29.95F

$$
MOZ072>076-082>087-097>100-106>115-290000-
...SOUTH CENTRAL AND SOUTHEAST MISSOURI...

CITY           SKY/WX    TMP DP  RH WIND       PRES   REMARKS
CAPE GIRARDEAU PTCLDY    46  34  62 SE10      30.10F
FARMINGTON     CLEAR     46  32  57 S17       30.04F
POPLAR BLUFF   PTCLDY    49  35  58 S12       30.08F
WEST PLAINS    PTCLDY    51  33  50 SE14G21   29.99F

$$


USA.gov is the U.S. government's official web portal to all federal, state and local government web resources and services.